Regional Weather Roundup
Issued by NWS

Home | Current Version | Previous Version | Graphics & Text | Print | Product List | Glossary On
Versions: 1 2 3 4 5 6 7 8 9 10 11 12 13 14 15 16 17 18 19 20 21 22 23 24 25 26 27 28 29 30 31 32 33 34 35 36 37 38 39 40 41 42 43 44 45 46 47 48 49 50
000
ASUS45 KABQ 250101
RWRNM
NEW MEXICO REGIONAL WEATHER ROUNDUP
NATIONAL WEATHER SERVICE ALBUQUERQUE NM
700 PM MDT MON APR 24 2017

NOTE: "FAIR" MEANS FEW OR NO CLOUDS BELOW 12,000 FEET AGL WITH NO
       SIGNIFICANT WEATHER OR OBSTRUCTIONS TO VISION.

      THIS PRODUCT IS RELEASED AS TWO VERSIONS.  ONE VERSION NEAR
      THE TOP OF THE HOUR CONTAINING PRELIMINARY DATA FROM ALBUQUERQUE
      AND OTHER STATIONS.  A FINAL VERSION WITH ADDITIONAL DATA IS
      ISSUED ABOUT 10 MINUTES AFTER THE HOUR.

NMZ501-503-504-510>518-250200-
NORTHWEST PLATEAU/NORTHCENTRAL MOUNTAINS

CITY           SKY/WX    TMP DP  RH WIND       PRES   REMARKS
FARMINGTON     PTSUNNY   65  23  20 NW5       29.66F
LOS ALAMOS     FAIR      64  15  15 SW12G17   29.77S
SANTA FE       FAIR      70  17  13 W23G40    29.69F
TAOS             N/A     63  16  16 NW15G24   29.74R
ANGEL FIRE     CLOUDY    56  17  22 W20G30    29.78F

$$
NMZ402-403-502-505>509-250200-
WESTCENTRAL MOUNTAINS/SOUTHWEST MOUNTAINS

CITY           SKY/WX    TMP DP  RH WIND       PRES   REMARKS
GALLUP         FAIR      66  18  15 SW32G41   29.76S
GRANTS         FAIR      67  14  12 W18G35    29.80S
SILVER CITY    FAIR      73  17  12 W24G33    29.83F

$$
NMZ407-409-411-412-250200-
SOUTHERN DESERTS

CITY           SKY/WX    TMP DP  RH WIND       PRES   REMARKS
DEMING         FAIR      82  15   8 W28G37    29.73F
LAS CRUCES     FAIR      82  14   7 W22G33    29.74F
HOLLOMAN AFB   FAIR      83  11   6 W26G33    29.70F HAZE
ALAMOGORDO     FAIR      82  14   7 W17G31    29.70S
T OR C         FAIR      79  13   8 W14G20    29.71S

$$
NMZ519>523-250200-
CENTRAL VALLEYS/CENTRAL HIGHLANDS

CITY           SKY/WX    TMP DP  RH WIND       PRES   REMARKS
ALBUQUERQUE    MOCLDY    76  13   9 W23G30    29.68F
DOUBLE EAGLE   MOCLDY    72  19  14 W21G32    29.71F
MORIARTY ARPT  FAIR      73  16  11 W13G22    29.72S
CLINES CORNERS FAIR      65  13  13 W29G40    29.73R
BELEN          FAIR      77  14   9 W25       29.68R
SOCORRO        FAIR      79  17   9 W15       29.67F

$$
NMZ524>526-539-540-250200-
SOUTHCENTRAL MOUNTAINS

CITY           SKY/WX    TMP DP  RH WIND       PRES   REMARKS
RUIDOSO        NOT AVBL

$$
NMZ527>531-250200-
NORTHEAST HIGHLANDS/NORTHEAST PLAINS

CITY           SKY/WX    TMP DP  RH WIND       PRES   REMARKS
LAS VEGAS      FAIR      67  13  12 W23G36    29.68F
RATON          FAIR      68  15  13 W20G30    29.62S
CLAYTON        FAIR      72  23  16 W7        29.52F

$$
NMZ532>537-250200-
EASTCENTRAL PLAINS

CITY           SKY/WX    TMP DP  RH WIND       PRES   REMARKS
SANTA ROSA     FAIR      80  21  11 SW22G28   29.56F
TUCUMCARI      FAIR      84  18   8 W17       29.49F
CANNON AFB     FAIR      81  11   7 SW15      29.57S
CLOVIS AIRPORT FAIR      79  19  11 SW10      29.58S

$$
NMZ028-029-538-250200-
SOUTHEAST PLAINS

CITY           SKY/WX    TMP DP  RH WIND       PRES   REMARKS
ROSWELL        FAIR      83  17   8 W13       29.60F
ARTESIA        FAIR      86  18   8 W17       29.59F
CARLSBAD       FAIR      88   5   4 SW20      29.59F
HOBBS          FAIR      84  10   6 SW13G23   29.63S


$$




USA.gov is the U.S. government's official web portal to all federal, state and local government web resources and services.